Regional Weather Roundup
Issued by NWS Mobile, AL

Home | Current Version | Previous Version | Text Only | Print | Product List | Glossary On
Versions: 1 2 3 4 5 6 7 8 9 10 11 12 13 14 15 16 17 18 19 20 21 22 23 24 25 26 27 28
000
ASUS44 KMOB 310012
RWRMOB
REGIONAL WEATHER ROUNDUP
NATIONAL WEATHER SERVICE MOBILE AL
700 PM CDT MON MAY 30 2016

NOTE: "FAIR" INDICATES FEW OR NO CLOUDS BELOW 12,000 FEET WITH NO
      SIGNIFICANT WEATHER AND/OR OBSTRUCTIONS TO VISIBILITY.

  * THESE STATIONS ARE PART OF THE UNIVERSITY OF SOUTH ALABAMA
    MESONET AND ARE NOT UNDER NWS OR FAA QUALITY CONTROL.

ALZ061>064-310100-
COASTAL ALABAMA

CITY           SKY/WX    TMP DP  RH WIND       PRES   REMARKS
MOBILE REG APT CLOUDY    82  70  66 S9        29.94F
6HR MIN TEMP:  81; 6HR MAX TEMP:  93;

BROOKLEY FIELD CLOUDY    84  72  67 W6        29.94F
6HR MIN TEMP:  83; 6HR MAX TEMP:  91;

USA CAMPUS*    NOT AVBL
DOG RIVER*     NOT AVBL


CITY           SKY/WX    TMP DP  RH WIND       PRES   REMARKS
MOUNT VERNON*  NOT AVBL
SARALAND*      NOT AVBL
BAY MINETTE*   NOT AVBL
LOXLEY*        NOT AVBL
ROBERTSDALE*   NOT AVBL
FAIRHOPE*      NOT AVBL
ELBERTA*       NOT AVBL
FOLEY*         NOT AVBL
GRAND BAY*     NOT AVBL
DAUPHIN ISLND* NOT AVBL
BON SCOUR NWR* NOT AVBL
GULF SHORES    CLEAR     82  74  77 W9        29.93S

$$

ALZ051>060-310100-
INTERIOR SOUTHWEST AND SOUTH CENTRAL ALABAMA

CITY           SKY/WX    TMP DP  RH WIND       PRES   REMARKS
GREENVILLE     CLEAR     89  62  40 NW3       29.93R
6HR MIN TEMP:  89; 6HR MAX TEMP:  96;

EVERGREEN      CLEAR     88  63  43 CALM      29.93R
6HR MIN TEMP:  88; 6HR MAX TEMP:  94;

CASTLEBERRY*   NOT AVBL
ATMORE*        NOT AVBL
DIXIE*         NOT AVBL
ANDALUSIA/OPP  CLEAR     93  65  39 CALM      29.92R HX  95
6HR MIN TEMP:  93; 6HR MAX TEMP:  99;

ANDALUSIA*     NOT AVBL
FLORALA APT    CLEAR     83  65  54 SW3       29.95R
6HR MIN TEMP:  83; 6HR MAX TEMP:  93;

FLORALA*       NOT AVBL

$$

FLZ001>006-310100-
WESTERN FLORIDA PANHANDLE

CITY           SKY/WX    TMP DP  RH WIND       PRES   REMARKS
PENSACOLA      CLOUDY    82  66  58 SW8       29.92S
6HR MIN TEMP:  80; 6HR MAX TEMP:  92; 6HR PCP: TRACE;

NAS PENSACOLA  NOT AVBL
MILTON         CLEAR     82  64  54 W6        29.93R
6HR MIN TEMP:  80; 6HR MAX TEMP:  91;

WHTNG S FIELD    N/A    N/A N/A N/A MISG      29.93


CITY           SKY/WX    TMP DP  RH WIND       PRES   REMARKS
WALNUT HILL*   NOT AVBL
JAY*           NOT AVBL
DUKE FIELD     CLOUDY    84  67  54 SW7       29.92R
CRESTVIEW      CLEAR     85  65  51 SW8       29.94R
6HR MIN TEMP:  85; 6HR MAX TEMP:  95;

VALPARAISO     PTCLDY    82  70  65 VRB5      29.93R
6HR MIN TEMP:  79; 6HR MAX TEMP:  85; 6HR PCP: TRACE;

DESTIN         MOCLDY    84  75  74 W7        29.93R
6HR MIN TEMP:  84; 6HR MAX TEMP:  86;


$$

MSZ076-079-310100-
INTERIOR SOUTHEAST MISSISSIPPI

CITY           SKY/WX    TMP DP  RH WIND       PRES   REMARKS
LEAKESVILLE*   NOT AVBL
AGRICOLA*      NOT AVBL

$$

MARINE OBSERVATIONS

STATION/POSITION TIME  TEMP    WIND        PRES    WAVE
                       AIR SEA DIR/SP/G            HT/PER
                 (UTC) (F)     (DEG/KT/KT) (MB)    (FT/S)
PASCAGOULA       2300   83                   N/A
PETIT BOIS ISLND 2300   82                   N/A
KATRINA CUT      2300   82     260/ 12     1014.6S
CEDAR POINT      2300   82     250/ 12     1013.9S
E DAUPHIN ISLAND 2300   82     260/  6/  7 1014.0R
MIDDLE BAY LIGHT 2300   82     230/ 15     1014.2S
USCG MOBILE BAY  2300   84 80                N/A
STATE DOCKS      2300   83 82                N/A
MEAHER PARK      2300   84     210/ 10     1013.2R
WEEKS BAY        2200   87                   N/A
FORT MORGAN      2300   81                   N/A
12 S ORANGE BCH  2350   82 82              1012.9F   1/ 3
PENSACOLA BAY    2300      80                N/A
64 S DAUPHIN ISL 2300   81 82  230/  6/  8 1014.0F

$$

SELECTED LOCATIONS ACROSS THE REGION

CITY           SKY/WX    TMP DP  RH WIND       PRES   REMARKS
NEW ORLEANS    CLOUDY    82  73  74 S7        29.92F
GULFPORT       PTCLDY    76  69  79 CALM      29.92F
PASCAGOULA AP  MOCLDY    74  69  85 CALM      29.94S
PASCAGOULA*    NOT AVBL
HATTIESBURG    PTSUNNY   83  69  62 S9        29.93R
LAUREL         MOSUNNY   84  70  61 CALM      29.94S
MERIDIAN       SUNNY     90  64  42 E5        29.93S
JACKSON        CLOUDY    85  67  54 NE3       29.92S
MONTGOMERY     MOCLDY    84  66  54 CALM      29.92S
TROY           CLEAR     89  61  38 N3        29.93R
KINSTON*       NOT AVBL
GENEVA*        NOT AVBL
ASHFORD*       NOT AVBL
DOTHAN         MOCLDY    79  64  60 SW7       29.95S
PANAMA CITY    PTCLDY    81  67  62 E6        29.95R

$$





USA.gov is the U.S. government's official web portal to all federal, state and local government web resources and services.